Date,TemperatureHighF,TemperatureAvgF,TemperatureLowF,DewpointHighF,DewpointAvgF,DewpointLowF,HumidityHigh,HumidityAvg,HumidityLow,PressureMaxIn,PressureMinIn,WindSpeedMaxMPH,WindSpeedAvgMPH,GustSpeedMaxMPH,PrecipitationSumIn
2013-1-1,51,39,33,-100,-100,-100,0,0,100,30.38,30.29,29,2,34,0.00
2013-1-2,72,50,36,-100,-100,-100,0,0,100,30.37,30.21,0,0,5,0.00
2013-1-3,76,52,42,-100,-100,-100,0,0,100,30.36,30.26,0,0,0,0.00
2013-1-4,70,50,44,-100,-100,-100,0,0,100,30.36,30.23,0,0,1,0.00
2013-1-5,48,43,39,-100,-100,-100,0,0,100,30.37,30.16,24,1,27,0.00
2013-1-6,40,38,36,-100,-100,-100,0,0,100,30.30,30.15,0,0,0,0.00
2013-1-7,65,46,38,-100,-100,-100,0,0,100,30.38,30.24,0,0,0,0.00
2013-1-8,60,49,43,-100,-100,-100,0,0,100,30.34,30.23,0,0,16,0.00
2013-1-9,58,45,33,-100,-100,-100,0,0,100,30.28,30.08,0,0,5,0.00
2013-1-10,45,34,31,-100,-100,-100,0,0,100,30.31,30.17,0,0,8,0.00
2013-1-11,41,34,30,-100,-100,-100,0,0,100,30.38,30.21,0,0,5,0.00
2013-1-12,59,36,28,-100,-100,-100,0,0,100,30.37,30.21,15,0,23,0.00
2013-1-13,55,34,27,-100,-100,-100,0,0,100,30.37,30.26,0,0,7,0.00
2013-1-14,49,34,26,-100,-100,-100,0,0,100,30.52,30.33,34,6,45,0.00
2013-1-15,58,41,35,-100,-100,-100,0,0,100,30.59,30.48,0,0,9,0.00
2013-1-16,75,51,38,-100,-100,-100,0,0,100,30.55,30.34,0,0,0,0.00
2013-1-17,83,59,49,-100,-100,-100,0,0,100,30.37,30.22,0,0,0,0.00
2013-1-18,83,60,51,-100,-100,-100,0,0,100,30.33,30.19,0,0,0,0.00
2013-1-19,80,60,52,-100,-100,-100,0,0,100,30.34,30.22,0,0,0,0.00
2013-1-20,85,60,50,-100,-100,-100,0,0,100,30.34,30.18,0,0,0,0.00
2013-1-21,82,60,51,-100,-100,-100,0,0,100,30.28,30.16,0,0,0,0.00
2013-1-22,71,60,54,-100,-100,-100,0,0,100,30.23,30.11,0,0,0,0.00
2013-1-23,58,52,45,-100,-100,-100,0,0,100,30.16,30.07,0,0,4,0.00
2013-1-24,52,49,45,-100,-100,-100,0,0,100,30.27,30.14,0,0,0,0.00
2013-1-25,75,54,48,-100,-100,-100,0,0,100,30.26,30.11,0,0,0,0.00
2013-1-26,50,43,38,-100,-100,-100,0,0,100,30.19,30.09,25,3,28,0.00
2013-1-27,54,39,33,-100,-100,-100,0,0,100,30.27,30.17,0,0,4,0.00
2013-1-28,52,39,32,-100,-100,-100,0,0,100,30.39,30.26,0,0,3,0.00
2013-1-29,63,44,35,-100,-100,-100,0,0,100,30.47,30.35,0,0,0,0.00
2013-1-30,54,47,44,-100,-100,-100,0,0,100,30.46,30.39,32,8,37,0.00
2013-1-31,76,60,50,-100,-100,-100,0,0,100,30.40,30.26,0,0,0,0.00
2013-2-1,76,57,49,-100,-100,-100,0,0,100,30.34,30.20,0,0,0,0.00
2013-2-2,70,57,42,-100,-100,-100,0,0,100,30.38,30.29,0,0,0,0.00
2013-2-3,68,46,37,-100,-100,-100,0,0,100,30.34,30.21,0,0,0,0.00
2013-2-4,78,56,46,-100,-100,-100,0,0,100,30.29,30.13,0,0,7,0.00
2013-2-5,51,41,37,-100,-100,-100,0,0,100,30.24,30.14,0,0,0,0.00
2013-2-6,59,43,36,-100,-100,-100,0,0,100,30.30,30.20,0,0,6,0.00
2013-2-7,47,39,34,-100,-100,-100,0,0,100,30.29,30.10,0,0,1,0.00
2013-2-8,53,37,32,-100,-100,-100,0,0,100,30.11,30.03,0,0,3,0.00
2013-2-9,63,42,34,-100,-100,-100,0,0,100,30.21,30.09,10,0,22,0.00
2013-2-10,65,46,38,-100,-100,-100,0,0,100,30.23,30.11,0,0,0,0.00
2013-2-11,69,47,36,-100,-100,-100,0,0,100,30.36,30.16,0,0,0,0.00
2013-2-12,70,51,43,-100,-100,-100,0,0,100,30.45,30.35,0,0,0,0.00
2013-2-13,75,51,42,-100,-100,-100,0,0,100,30.45,30.31,0,0,0,0.00
2013-2-14,70,53,45,-100,-100,-100,0,0,100,30.35,30.27,30,3,43,0.00
2013-2-15,83,61,49,-100,-100,-100,0,0,100,30.39,30.29,0,0,0,0.00
2013-2-16,75,60,52,-100,-100,-100,0,0,100,30.37,30.14,0,0,0,0.00
2013-2-17,75,52,39,-100,-100,-100,0,0,100,30.17,30.03,0,0,6,0.00
2013-2-18,46,39,35,-100,-100,-100,0,0,100,30.14,30.07,0,0,6,0.00
2013-2-19,37,34,30,-100,-100,-100,0,0,100,30.10,29.84,26,1,29,0.00
2013-2-20,52,39,30,-100,-100,-100,0,0,100,30.17,29.93,0,0,0,0.00
2013-2-21,62,42,32,-100,-100,-100,0,0,100,30.29,30.15,0,0,0,0.00
2013-2-22,58,46,39,-100,-100,-100,0,0,100,30.36,30.29,0,0,3,0.00
2013-2-23,51,42,37,-100,-100,-100,0,0,100,30.36,30.25,26,1,29,0.00
2013-2-24,66,45,35,-100,-100,-100,0,0,100,30.37,30.25,31,12,38,0.00
2013-2-25,72,49,43,-100,-100,-100,0,0,100,30.40,30.26,0,0,4,0.00
2013-2-26,72,50,38,-100,-100,-100,0,0,100,30.34,30.24,30,1,34,0.00
2013-2-27,68,55,48,-100,-100,-100,0,0,100,30.48,30.34,0,0,14,0.00
2013-2-28,77,54,46,-100,-100,-100,0,0,100,30.56,30.46,0,0,3,0.00
2013-3-1,80,59,50,-100,-100,-100,0,0,100,30.55,30.35,6,0,17,0.00
2013-3-2,73,60,51,-100,-100,-100,0,0,100,30.39,30.17,0,0,5,0.00
2013-3-3,61,50,39,-100,-100,-100,0,0,100,30.23,30.11,2,0,4,0.00
2013-3-4,66,48,38,-100,-100,-100,0,0,100,30.21,30.10,0,0,0,0.00
2013-3-5,54,44,35,-100,-100,-100,0,0,100,30.16,29.96,0,0,0,0.00
2013-3-6,47,40,36,-100,-100,-100,0,0,100,30.19,29.98,0,0,0,0.00
2013-3-7,65,42,36,-100,-100,-100,0,0,100,30.08,29.88,0,0,0,0.00
2013-3-8,48,40,36,-100,-100,-100,0,0,100,30.19,29.87,0,0,0,0.00
2013-3-9,69,48,37,-100,-100,-100,0,0,100,30.41,30.19,0,0,0,0.00
2013-3-10,80,55,45,-100,-100,-100,0,0,100,30.44,30.33,0,0,0,0.00
2013-3-11,84,60,49,-100,-100,-100,0,0,100,30.36,30.19,0,0,0,0.00
2013-3-12,86,64,54,-100,-100,-100,0,0,100,30.23,30.14,0,0,0,0.00
2013-3-13,88,66,57,-100,-100,-100,0,0,100,30.26,30.15,0,0,0,0.00
2013-3-14,73,61,55,-100,-100,-100,0,0,100,30.24,30.18,0,0,0,0.00
2013-3-15,76,60,51,-100,-100,-100,0,0,100,30.22,30.13,0,0,0,0.00
2013-3-16,70,58,48,-100,-100,-100,0,0,100,30.19,30.11,0,0,0,0.00
2013-3-17,80,53,43,-100,-100,-100,0,0,100,30.22,30.11,0,0,0,0.00
2013-3-18,67,55,46,-100,-100,-100,0,0,100,30.21,30.10,0,0,0,0.00
2013-3-19,69,55,43,-100,-100,-100,0,0,100,30.21,30.13,0,0,0,0.00
2013-3-20,59,50,44,-100,-100,-100,0,0,100,30.21,30.15,0,0,0,0.00
2013-3-21,62,46,35,-100,-100,-100,0,0,100,30.22,30.06,0,0,0,0.00
2013-3-22,68,50,41,-100,-100,-100,0,0,100,30.19,30.10,0,0,0,0.00
2013-3-23,81,53,42,-100,-100,-100,0,0,100,30.23,30.11,0,0,0,0.00
2013-3-24,80,58,50,-100,-100,-100,0,0,100,30.17,30.03,0,0,0,0.00
2013-3-25,66,52,38,-100,-100,-100,0,0,100,30.10,29.98,0,0,0,0.00
2013-3-26,70,51,38,-100,-100,-100,0,0,100,30.08,29.97,0,0,0,0.00
2013-3-27,58,49,45,-100,-100,-100,0,0,100,30.11,30.00,0,0,0,0.00
2013-3-28,72,54,46,-100,-100,-100,0,0,100,30.17,30.10,0,0,0,0.00
2013-3-29,74,58,47,-100,-100,-100,0,0,100,30.19,30.09,0,0,0,0.00
2013-3-30,68,55,48,-100,-100,-100,0,0,100,30.16,30.08,0,0,0,0.00
2013-3-31,60,50,44,-100,-100,-100,0,0,100,30.18,30.10,0,0,0,0.00
2013-4-1,63,49,43,-100,-100,-100,0,0,100,30.24,30.14,0,0,0,0.00
2013-4-2,78,54,42,-100,-100,-100,0,0,100,30.29,30.15,0,0,0,0.00
2013-4-3,80,60,50,-100,-100,-100,0,0,100,30.24,30.06,0,0,0,0.00
2013-4-4,57,50,42,-100,-100,-100,0,0,100,30.21,30.09,0,0,0,0.00
2013-4-5,60,48,44,-100,-100,-100,0,0,100,30.27,30.15,0,0,0,0.00
2013-4-6,61,49,44,-100,-100,-100,0,0,100,30.29,30.20,0,0,0,0.00
2013-4-7,56,47,42,-100,-100,-100,0,0,100,30.28,29.93,0,0,0,0.00
2013-4-8,65,47,35,-100,-100,-100,0,0,100,30.10,29.90,0,0,0,0.00
2013-4-9,78,55,42,-100,-100,-100,0,0,100,30.20,30.08,0,0,0,0.00
2013-4-10,77,63,53,-100,-100,-100,0,0,100,30.28,30.12,0,0,0,0.00
2013-4-11,72,55,42,-100,-100,-100,0,0,100,30.17,29.91,0,0,0,0.00
2013-4-12,80,60,50,-100,-100,-100,0,0,100,30.00,29.88,0,0,0,0.00
2013-4-13,67,53,43,-100,-100,-100,0,0,100,29.99,29.90,0,0,0,0.00
2013-4-14,62,48,40,-100,-100,-100,0,0,100,30.00,29.93,0,0,0,0.00
2013-4-15,47,40,36,-100,-100,-100,0,0,100,30.04,29.95,0,0,0,0.00
2013-4-16,58,44,34,-100,-100,-100,0,0,100,30.23,30.04,0,0,0,0.00
2013-4-17,70,50,40,-100,-100,-100,0,0,100,30.34,30.17,0,0,0,0.00
2013-4-18,81,57,47,-100,-100,-100,0,0,100,30.36,30.20,0,0,0,0.00
2013-4-19,76,63,54,-100,-100,-100,0,0,100,30.33,30.12,0,0,0,0.00
2013-4-20,81,62,52,-100,-100,-100,0,0,100,30.20,30.06,0,0,0,0.00
2013-4-21,87,68,58,-100,-100,-100,0,0,100,30.14,30.03,0,0,0,0.00
2013-4-22,86,69,59,-100,-100,-100,0,0,100,30.09,29.94,0,0,0,0.00
2013-4-23,86,64,53,-100,-100,-100,0,0,100,30.03,29.90,0,0,0,0.00
2013-4-24,72,59,45,-100,-100,-100,0,0,100,30.04,29.87,0,0,0,0.00
2013-4-25,65,51,44,-100,-100,-100,0,0,100,30.21,30.01,0,0,0,0.00
2013-4-26,80,63,52,-100,-100,-100,0,0,100,30.27,30.17,0,0,0,0.00
2013-4-27,92,71,59,-100,-100,-100,0,0,100,30.28,30.13,0,0,0,0.00
2013-4-28,98,74,63,-100,-100,-100,0,0,100,30.16,29.97,0,0,0,0.00
2013-4-29,84,72,61,-100,-100,-100,0,0,100,30.00,29.84,0,0,0,0.00
2013-4-30,80,65,57,-100,-100,-100,0,0,100,29.94,29.82,0,0,0,0.00
2013-5-1,88,67,52,-100,-100,-100,0,0,100,30.18,29.88,0,0,0,0.00
2013-5-2,87,70,60,-100,-100,-100,0,0,100,30.26,30.15,0,0,0,0.00
2013-5-3,89,72,66,-100,-100,-100,0,0,100,30.20,29.88,0,0,0,0.00
2013-5-4,84,69,44,-100,-100,-100,0,0,100,29.90,29.60,0,0,0,0.00
2013-5-5,65,52,43,-100,-100,-100,0,0,100,29.90,29.61,0,0,0,0.00
2013-5-6,63,53,47,-100,-100,-100,0,0,100,30.05,29.88,0,0,0,0.00
2013-5-7,69,54,48,-100,-100,-100,0,0,100,30.13,29.99,0,0,0,0.00
2013-5-8,65,52,44,-100,-100,-100,0,0,100,30.21,30.06,0,0,0,0.00
2013-5-9,78,54,44,-100,-100,-100,0,0,100,30.25,30.14,0,0,0,0.00
2013-5-10,83,66,52,-100,-100,-100,0,0,100,30.26,30.17,0,0,0,0.00
2013-5-11,91,76,65,-100,-100,-100,0,0,100,30.24,30.13,0,0,0,0.00
2013-5-12,84,70,63,-100,-100,-100,0,0,100,30.23,30.12,0,0,0,0.00
2013-5-13,85,69,60,-100,-100,-100,0,0,100,30.16,30.03,0,0,0,0.00
2013-5-14,73,60,47,-100,-100,-100,0,0,100,30.11,29.99,0,0,0,0.00
2013-5-15,61,50,43,-100,-100,-100,0,0,100,30.18,30.08,0,0,0,0.00
2013-5-16,63,50,44,-100,-100,-100,0,0,100,30.14,30.04,0,0,0,0.00
2013-5-17,62,48,42,-100,-100,-100,0,0,100,30.19,30.08,0,0,0,0.00
2013-5-18,68,54,41,-100,-100,-100,0,0,100,30.24,30.16,0,0,0,0.00
2013-5-19,75,62,51,-100,-100,-100,0,0,100,30.21,30.05,0,0,0,0.00
2013-5-20,82,69,60,-100,-100,-100,0,0,100,30.11,30.02,0,0,0,0.00
2013-5-21,65,54,40,-100,-100,-100,0,0,100,30.09,29.98,0,0,0,0.00
2013-5-22,58,45,37,-100,-100,-100,0,0,100,30.08,29.98,0,0,0,0.00
2013-5-23,64,47,38,-100,-100,-100,0,0,100,30.10,30.01,0,0,0,0.00
2013-5-24,64,52,40,-100,-100,-100,0,0,100,30.10,30.00,0,0,0,0.00
2013-5-25,60,47,40,-100,-100,-100,0,0,100,30.18,30.05,0,0,0,0.00
2013-5-26,63,50,44,-100,-100,-100,0,0,100,30.24,30.15,0,0,0,0.00
2013-5-27,53,49,44,-100,-100,-100,0,0,100,30.24,30.10,0,0,0,0.00
2013-5-28,65,54,46,-100,-100,-100,0,0,100,30.11,30.00,0,0,0,0.00
2013-5-29,64,53,46,-100,-100,-100,0,0,100,30.07,30.00,0,0,0,0.00
2013-5-30,75,60,45,-100,-100,-100,0,0,100,30.07,30.01,0,0,0,0.00
2013-5-31,84,69,56,-100,-100,-100,0,0,100,30.11,30.01,0,0,0,0.00
2013-6-1,90,76,68,-100,-100,-100,0,0,100,30.04,29.89,0,0,0,0.00
2013-6-2,84,72,62,-100,-100,-100,0,0,100,29.89,29.75,0,0,0,0.00
2013-6-3,82,67,56,-100,-100,-100,0,0,100,29.93,29.80,0,0,0,0.00
2013-6-4,73,61,53,-100,-100,-100,0,0,100,30.04,29.91,0,0,0,0.00
2013-6-5,80,62,49,-100,-100,-100,0,0,100,30.07,29.98,0,0,0,0.00
2013-6-6,93,73,62,-100,-100,-100,0,0,100,30.03,29.93,0,0,0,0.00
2013-6-7,108,84,71,-100,-100,-100,0,0,100,29.96,29.84,0,0,0,0.00
2013-6-8,109,86,65,-100,-100,-100,0,0,100,29.89,29.77,0,0,0,0.00
2013-6-9,70,61,50,-100,-100,-100,0,0,100,29.96,29.87,0,0,0,0.00
2013-6-10,74,55,46,-100,-100,-100,0,0,100,30.03,29.91,0,0,0,0.00
2013-6-11,81,61,49,-100,-100,-100,0,0,100,30.05,29.97,0,0,0,0.00
2013-6-12,73,63,50,-100,-100,-100,0,0,100,30.10,29.98,0,0,0,0.00
2013-6-13,75,62,47,-100,-100,-100,0,0,100,30.16,30.08,0,0,0,0.00
2013-6-14,81,68,57,-100,-100,-100,0,0,100,30.08,29.91,0,0,0,0.00
2013-6-15,75,65,54,-100,-100,-100,0,0,100,30.08,29.92,0,0,0,0.00
2013-6-16,74,64,55,-100,-100,-100,0,0,100,30.18,30.07,0,0,0,0.00
2013-6-17,70,57,49,-100,-100,-100,0,0,100,30.18,30.10,0,0,0,0.00
2013-6-18,61,50,46,-100,-100,-100,0,0,100,30.14,30.06,0,0,0,0.00
2013-6-19,67,52,44,-100,-100,-100,0,0,100,30.13,30.07,0,0,0,0.00
2013-6-20,74,58,47,-100,-100,-100,0,0,100,30.11,29.99,0,0,0,0.00
2013-6-21,77,66,51,-100,-100,-100,0,0,100,30.07,29.98,0,0,0,0.00
2013-6-22,84,69,53,-100,-100,-100,0,0,100,30.02,29.92,0,0,0,0.00
2013-6-23,67,55,50,-100,-100,-100,0,0,100,29.98,29.90,0,0,0,0.00
2013-6-24,59,56,54,-100,-100,-100,0,0,100,30.02,29.88,0,0,0,0.00
2013-6-25,74,61,52,-100,-100,-100,0,0,100,30.10,30.00,0,0,0,0.00
2013-6-26,80,66,58,-100,-100,-100,0,0,100,30.15,30.07,0,0,0,0.00
2013-6-27,90,74,58,-100,-100,-100,0,0,100,30.17,30.13,0,0,0,0.00
2013-6-28,94,83,72,-100,-100,-100,0,0,100,30.17,30.03,0,0,0,0.00
2013-6-29,95,84,76,-100,-100,-100,0,0,100,30.06,29.92,0,0,0,0.00
2013-6-30,95,83,75,-100,-100,-100,0,0,100,29.97,29.87,0,0,0,0.00
2013-7-1,98,86,74,-100,-100,-100,0,0,100,29.96,29.89,0,0,0,0.00
2013-7-2,100,85,72,-100,-100,-100,0,0,100,30.01,29.91,0,0,0,0.00
2013-7-3,98,87,74,-100,-100,-100,0,0,100,30.00,29.85,0,0,0,0.00
2013-7-4,98,85,72,-100,-100,-100,0,0,100,29.87,29.78,0,0,0,0.00
2013-7-5,76,62,52,-100,-100,-100,0,0,100,29.88,29.78,0,0,0,0.00
2013-7-6,80,64,53,-100,-100,-100,0,0,100,29.88,29.80,0,0,0,0.00
2013-7-7,84,72,62,-100,-100,-100,0,0,100,29.93,29.84,0,0,0,0.00
2013-7-8,86,73,65,-100,-100,-100,0,0,100,30.06,29.93,0,0,0,0.00
2013-7-9,97,81,68,-100,-100,-100,0,0,100,30.09,30.01,0,0,0,0.00
2013-7-10,88,77,66,-100,-100,-100,0,0,100,30.06,29.95,0,0,0,0.00
2013-7-11,80,68,59,-100,-100,-100,0,0,100,30.00,29.92,0,0,0,0.00
2013-7-12,81,68,61,-100,-100,-100,0,0,100,30.00,29.95,0,0,0,0.00
2013-7-13,86,73,66,-100,-100,-100,0,0,100,30.04,29.98,0,0,0,0.00
2013-7-14,85,72,66,-100,-100,-100,0,0,100,30.06,29.95,0,0,0,0.00
2013-7-15,78,66,52,-100,-100,-100,0,0,100,29.98,29.88,0,0,0,0.00
2013-7-16,71,55,47,-100,-100,-100,0,0,100,30.10,29.92,0,0,0,0.00
2013-7-17,90,69,49,-100,-100,-100,0,0,100,30.14,30.08,0,0,0,0.00
2013-7-18,86,74,67,-100,-100,-100,0,0,100,30.13,30.01,0,0,0,0.00
2013-7-19,96,81,71,-100,-100,-100,0,0,100,30.04,29.90,0,0,0,0.00
2013-7-20,95,82,72,-100,-100,-100,0,0,100,29.94,29.80,0,0,0,0.00
2013-7-21,86,76,66,-100,-100,-100,0,0,100,29.95,29.84,0,0,0,0.00
2013-7-22,85,72,61,-100,-100,-100,0,0,100,30.05,29.91,0,0,0,0.00
2013-7-23,94,76,66,-100,-100,-100,0,0,100,30.07,30.00,0,0,0,0.00
2013-7-24,92,78,71,-100,-100,-100,0,0,100,30.05,29.96,0,0,0,0.00
2013-7-25,88,78,70,-100,-100,-100,0,0,100,30.10,29.98,0,0,0,0.00
2013-7-26,89,76,70,-100,-100,-100,0,0,100,30.14,30.04,0,0,0,0.00
2013-7-27,89,77,69,-100,-100,-100,0,0,100,30.11,29.91,0,0,0,0.00
2013-7-28,81,72,62,-100,-100,-100,0,0,100,29.95,29.84,0,0,0,0.00
2013-7-29,79,66,57,-100,-100,-100,0,0,100,30.07,29.87,0,0,0,0.00
2013-7-30,83,69,61,-100,-100,-100,0,0,100,30.15,30.05,0,0,0,0.00
2013-7-31,78,66,52,-100,-100,-100,0,0,100,30.13,30.03,0,0,0,0.00
2013-8-1,79,61,48,-100,-100,-100,0,0,100,30.14,30.03,0,0,0,0.00
2013-8-2,82,68,58,-100,-100,-100,0,0,100,30.05,29.96,0,0,0,0.00
2013-8-3,83,69,59,-100,-100,-100,0,0,100,30.02,29.96,0,0,0,0.00
2013-8-4,84,68,59,-100,-100,-100,0,0,100,30.06,29.98,0,0,0,0.00
2013-8-5,82,69,60,-100,-100,-100,0,0,100,30.07,29.98,0,0,0,0.00
2013-8-6,74,64,51,-100,-100,-100,0,0,100,30.11,29.99,0,0,0,0.00
2013-8-7,71,57,50,-100,-100,-100,0,0,100,30.18,30.09,0,0,0,0.00
2013-8-8,73,58,50,-100,-100,-100,0,0,100,30.11,29.98,0,0,0,0.00
2013-8-9,72,59,48,-100,-100,-100,0,0,100,30.08,29.97,0,0,0,0.00
2013-8-10,76,64,56,-100,-100,-100,0,0,100,30.11,30.06,0,0,0,0.00
2013-8-11,80,66,58,-100,-100,-100,0,0,100,30.11,30.01,0,0,0,0.00
2013-8-12,81,68,60,-100,-100,-100,0,0,100,30.07,30.02,0,0,0,0.00
2013-8-13,88,74,65,-100,-100,-100,0,0,100,30.07,29.98,0,0,0,0.00
2013-8-14,82,72,64,-100,-100,-100,0,0,100,30.05,29.97,0,0,0,0.00
2013-8-15,83,71,62,-100,-100,-100,0,0,100,30.06,30.00,0,0,0,0.00
2013-8-16,84,71,62,-100,-100,-100,0,0,100,30.08,30.03,0,0,0,0.00
2013-8-17,88,72,62,-100,-100,-100,0,0,100,30.08,29.95,0,0,0,0.00
2013-8-18,97,82,70,-100,-100,-100,0,0,100,29.98,29.87,0,0,0,0.00
2013-8-19,99,84,71,-100,-100,-100,0,0,100,29.99,29.88,0,0,0,0.00
2013-8-20,87,73,63,-100,-100,-100,0,0,100,29.97,29.88,0,0,0,0.00
2013-8-21,84,69,58,-100,-100,-100,0,0,100,30.00,29.91,0,0,0,0.00
2013-8-22,78,64,53,-100,-100,-100,0,0,100,30.01,29.94,0,0,0,0.00
2013-8-23,80,68,58,-100,-100,-100,0,0,100,30.00,29.88,0,0,0,0.00
2013-8-24,72,63,56,-100,-100,-100,0,0,100,29.99,29.92,0,0,0,0.00
2013-8-25,80,63,54,-100,-100,-100,0,0,100,30.03,29.96,0,0,0,0.00
2013-8-26,77,63,52,-100,-100,-100,0,0,100,30.06,29.98,0,0,0,0.00
2013-8-27,79,68,58,-100,-100,-100,0,0,100,30.00,29.90,0,0,0,0.00
2013-8-28,82,66,56,-100,-100,-100,0,0,100,30.04,29.95,0,0,0,0.00
2013-8-29,80,67,58,-100,-100,-100,0,0,100,30.14,30.03,0,0,0,0.00
2013-8-30,90,74,64,-100,-100,-100,0,0,100,30.14,30.03,0,0,0,0.00
2013-8-31,83,72,61,-100,-100,-100,0,0,100,30.07,29.98,0,0,0,0.00
2013-9-1,80,65,56,-100,-100,-100,0,0,100,30.03,29.95,0,0,0,0.00
2013-9-2,68,59,54,-100,-100,-100,0,0,100,30.04,29.98,0,0,0,0.00
2013-9-3,73,61,54,-100,-100,-100,0,0,100,30.08,30.00,0,0,0,0.00
2013-9-4,71,59,52,-100,-100,-100,0,0,100,30.13,30.02,0,0,0,0.00
2013-9-5,69,59,52,-100,-100,-100,0,0,100,30.12,30.04,0,0,0,0.00
2013-9-6,101,74,58,-100,-100,-100,0,0,100,30.10,29.92,0,0,0,0.00
2013-9-7,93,78,68,-100,-100,-100,0,0,100,29.98,29.90,0,0,0,0.00
2013-9-8,98,81,70,-100,-100,-100,0,0,100,29.97,29.85,0,0,0,0.00
2013-9-9,94,81,73,-100,-100,-100,0,0,100,29.91,29.80,0,0,0,0.00
2013-9-10,80,72,60,-100,-100,-100,0,0,100,29.97,29.80,0,0,0,0.00
2013-9-11,75,62,52,-100,-100,-100,0,0,100,30.04,29.95,0,0,0,0.00
2013-9-12,91,69,53,-100,-100,-100,0,0,100,30.04,29.95,0,0,0,0.00
2013-9-13,88,72,56,-100,-100,-100,0,0,100,30.00,29.84,0,0,0,0.00
2013-9-14,80,67,56,-100,-100,-100,0,0,100,29.88,29.81,0,0,0,0.00
2013-9-15,75,60,48,-100,-100,-100,0,0,100,29.95,29.86,0,0,0,0.00
2013-9-16,77,62,50,-100,-100,-100,0,0,100,29.97,29.87,0,0,0,0.00
2013-9-17,67,55,50,-100,-100,-100,0,0,100,30.00,29.93,0,0,0,0.00
2013-9-18,58,56,53,-100,-100,-100,0,0,100,29.97,29.94,0,0,0,0.00
2013-9-20,55,54,54,-100,-100,-100,0,0,100,29.94,29.92,0,0,0,0.00
2013-9-21,57,53,50,-100,-100,-100,0,0,100,29.98,29.90,0,0,0,0.00
2013-9-22,68,54,48,-100,-100,-100,0,0,100,30.09,29.98,0,0,0,0.00
2013-9-23,88,64,52,-100,-100,-100,0,0,100,30.11,30.01,0,0,0,0.00
2013-9-24,66,56,47,-100,-100,-100,0,0,100,30.09,30.01,0,0,0,0.00
2013-9-25,61,50,45,-100,-100,-100,0,0,100,30.03,29.90,0,0,0,0.00
2013-9-26,69,53,44,-100,-100,-100,0,0,100,30.08,29.91,0,0,0,0.00
2013-9-27,85,60,50,-100,-100,-100,0,0,100,30.19,30.07,0,0,0,0.00
2013-9-28,80,65,54,-100,-100,-100,0,0,100,30.17,30.08,0,0,0,0.00
2013-9-29,74,60,52,-100,-100,-100,0,0,100,30.19,30.13,0,0,0,0.00
2013-9-30,70,59,53,-100,-100,-100,0,0,100,30.17,30.03,0,0,0,0.00
2013-10-1,79,56,45,-100,-100,-100,0,0,100,30.10,29.98,0,0,0,0.00
2013-10-2,72,60,52,-100,-100,-100,0,0,100,30.08,30.00,0,0,0,0.00
2013-10-3,73,57,48,-100,-100,-100,0,0,100,30.14,29.96,0,0,0,0.00
2013-10-4,81,61,49,-100,-100,-100,0,0,100,30.21,29.97,0,0,3,0.00
2013-10-5,93,68,57,-100,-100,-100,0,0,100,30.29,30.19,0,0,0,0.00
2013-10-6,85,71,62,-100,-100,-100,0,0,100,30.23,30.09,0,0,0,0.00
2013-10-7,80,68,61,-100,-100,-100,0,0,100,30.10,29.95,0,0,0,0.00
2013-10-8,79,60,47,-100,-100,-100,0,0,100,29.97,29.73,0,0,0,0.00
2013-10-9,67,52,43,-100,-100,-100,0,0,100,29.86,29.66,0,0,0,0.00
2013-10-10,71,57,51,-100,-100,-100,0,0,100,30.06,29.83,0,0,0,0.00
2013-10-11,76,59,52,-100,-100,-100,0,0,100,30.11,29.98,0,0,0,0.00
2013-10-12,69,57,45,-100,-100,-100,0,0,100,30.06,29.94,0,0,0,0.00
2013-10-13,76,56,46,-100,-100,-100,0,0,100,30.15,29.99,0,0,0,0.00
2013-10-14,86,62,52,-100,-100,-100,0,0,100,30.19,30.06,0,0,0,0.00
2013-10-15,81,63,53,-100,-100,-100,0,0,100,30.12,30.01,0,0,0,0.00
2013-10-16,82,67,59,-100,-100,-100,0,0,100,30.16,30.08,0,0,0,0.00
2013-10-17,80,66,59,-100,-100,-100,0,0,100,30.16,30.04,0,0,0,0.00
2013-10-18,90,69,62,-100,-100,-100,0,0,100,30.11,30.03,0,0,0,0.00
2013-10-19,93,72,60,-100,-100,-100,0,0,100,30.13,30.06,0,0,0,0.00
2013-10-20,86,70,61,-100,-100,-100,0,0,100,30.10,29.95,0,0,0,0.00
2013-10-21,92,71,62,-100,-100,-100,0,0,100,30.05,29.95,0,0,0,0.00
2013-10-22,93,73,64,-100,-100,-100,0,0,100,30.06,29.97,0,0,0,0.00
2013-10-23,95,72,62,-100,-100,-100,0,0,100,30.01,29.92,0,0,0,0.00
2013-10-24,85,67,57,-100,-100,-100,0,0,100,30.13,29.98,0,0,0,0.00
2013-10-25,89,68,57,-100,-100,-100,0,0,100,30.19,30.11,0,0,0,0.00
2013-10-26,87,69,60,-100,-100,-100,0,0,100,30.20,30.08,0,0,0,0.00
2013-10-27,66,56,43,-100,-100,-100,0,0,100,30.10,29.78,0,0,0,0.00
2013-10-28,56,45,42,-100,-100,-100,0,0,100,29.93,29.75,0,0,0,0.00
2013-10-29,60,46,43,-100,-100,-100,0,0,100,30.11,29.94,0,0,0,0.00
2013-10-30,74,52,44,-100,-100,-100,0,0,100,30.19,30.09,0,0,0,0.00
2013-10-31,80,58,48,-100,-100,-100,0,0,100,30.24,30.11,0,0,0,0.00
2013-11-1,83,64,52,-100,-100,-100,0,0,100,30.20,30.07,0,0,0,0.00
2013-11-2,70,60,48,-100,-100,-100,0,0,100,30.11,29.95,0,0,0,0.00
2013-11-3,67,50,44,-100,-100,-100,0,0,100,30.10,29.93,0,0,0,0.00
2013-11-4,68,51,41,-100,-100,-100,0,0,100,30.14,29.95,0,0,0,0.00
2013-11-5,77,56,48,-100,-100,-100,0,0,100,30.29,30.13,0,0,0,0.00
2013-11-6,82,62,53,-100,-100,-100,0,0,100,30.30,30.19,0,0,0,0.00
2013-11-7,80,63,56,-100,-100,-100,0,0,100,30.23,30.12,0,0,0,0.00
2013-11-8,82,62,54,-100,-100,-100,0,0,100,30.14,30.00,0,0,0,0.00
2013-11-9,73,62,55,-100,-100,-100,0,0,100,30.09,30.01,0,0,0,0.00
2013-11-10,77,61,55,-100,-100,-100,0,0,100,30.16,30.08,0,0,0,0.00
2013-11-11,72,61,54,-100,-100,-100,0,0,100,30.23,30.11,0,0,0,0.00
2013-11-12,84,62,49,-100,-100,-100,0,0,100,30.32,30.20,0,0,0,0.00
2013-11-13,81,63,54,-100,-100,-100,0,0,100,30.32,30.16,0,0,0,0.00
2013-11-14,72,59,43,-100,-100,-100,0,0,100,30.18,29.92,0,0,0,0.00
2013-11-15,65,50,41,-100,-100,-100,0,0,100,29.95,29.72,0,0,0,0.00
2013-11-16,57,46,40,-100,-100,-100,0,0,100,29.99,29.82,0,0,0,0.00
2013-11-17,64,49,42,-100,-100,-100,0,0,100,30.15,29.98,0,0,0,0.00
2013-11-18,56,47,42,-100,-100,-100,0,0,100,30.20,30.11,0,0,0,0.00
2013-11-19,58,49,45,-100,-100,-100,0,0,100,30.17,30.02,0,0,0,0.00
2013-11-20,54,49,44,-100,-100,-100,0,0,100,30.04,29.90,0,0,0,0.00
2013-11-21,57,45,39,-100,-100,-100,0,0,100,30.04,29.94,0,0,3,0.00
2013-11-22,64,48,40,-100,-100,-100,0,0,100,30.08,29.94,0,0,0,0.00
2013-11-23,74,52,45,-100,-100,-100,0,0,100,30.18,30.03,0,0,0,0.00
2013-11-24,62,50,45,-100,-100,-100,0,0,100,30.32,30.16,0,0,0,0.00
2013-11-25,73,53,44,-100,-100,-100,0,0,100,30.38,30.26,0,0,0,0.00
2013-11-26,67,56,50,-100,-100,-100,0,0,100,30.32,30.09,0,0,0,0.00
2013-11-27,67,56,52,-100,-100,-100,0,0,100,30.09,29.88,0,0,0,0.00
2013-11-28,74,57,51,-100,-100,-100,0,0,100,30.16,29.93,0,0,0,0.00
2013-11-29,71,58,53,-100,-100,-100,0,0,100,30.28,30.14,0,0,0,0.00
2013-11-30,74,58,51,-100,-100,-100,0,0,100,30.33,30.23,0,0,0,0.00
2013-12-1,73,58,51,-100,-100,-100,0,0,100,30.39,30.26,0,0,0,0.00
2013-12-2,66,56,46,-100,-100,-100,0,0,100,30.30,30.03,0,0,0,0.00
2013-12-3,48,39,33,-100,-100,-100,0,0,100,30.03,29.86,0,0,0,0.00
2013-12-4,58,33,28,-100,-100,-100,0,0,100,30.12,29.98,0,0,0,0.00
2013-12-5,59,36,26,-100,-100,-100,0,0,100,30.21,30.10,0,0,0,0.00
2013-12-6,43,34,26,-100,-100,-100,0,0,100,30.24,30.00,0,0,0,0.00
2013-12-7,40,32,27,-100,-100,-100,0,0,100,30.28,29.98,0,0,0,0.00
2013-12-8,45,28,24,-100,-100,-100,0,0,100,30.36,30.22,0,0,0,0.00
2013-12-9,57,32,23,-100,-100,-100,0,0,100,30.47,30.32,0,0,0,0.00
2013-12-10,67,35,29,-100,-100,-100,0,0,100,30.46,30.18,0,0,0,0.00
2013-12-11,66,49,39,-100,-100,-100,0,0,100,30.26,30.15,0,0,0,0.00
2013-12-12,59,50,41,-100,-100,-100,0,0,100,30.29,30.17,0,0,0,0.00
2013-12-13,60,47,40,-100,-100,-100,0,0,100,30.38,30.24,0,0,0,0.00
2013-12-14,74,50,41,-100,-100,-100,0,0,100,30.44,30.32,0,0,0,0.00
2013-12-15,81,54,48,-100,-100,-100,0,0,100,30.41,30.25,0,0,0,0.00
2013-12-16,79,63,54,-100,-100,-100,0,0,100,30.29,30.16,0,0,0,0.00
2013-12-17,83,64,58,-100,-100,-100,0,0,100,30.22,30.07,0,0,0,0.00
2013-12-18,63,49,11,-100,-100,-100,0,0,100,30.07,29.82,0,0,0,0.00
2013-12-19,60,36,2,-100,-100,-100,0,0,100,29.98,29.76,0,0,0,0.00
2013-12-20,63,45,35,-100,-100,-100,0,0,100,30.07,29.97,0,0,0,0.00
2013-12-21,70,51,44,-100,-100,-100,0,0,100,30.14,30.01,0,0,0,0.00
2013-12-22,62,52,45,-100,-100,-100,0,0,100,30.36,30.13,0,0,0,0.00
2013-12-23,76,56,47,-100,-100,-100,0,0,100,30.42,30.32,0,0,0,0.00
2013-12-24,67,53,46,-100,-100,-100,0,0,100,30.39,30.25,0,0,0,0.00
2013-12-25,75,57,44,-100,-100,-100,0,0,100,30.34,30.22,0,0,0,0.00
2013-12-26,81,61,51,-100,-100,-100,0,0,100,30.30,30.20,0,0,0,0.00
2013-12-27,74,59,48,-100,-100,-100,0,0,100,30.29,30.15,0,0,0,0.00
2013-12-28,60,51,41,-100,-100,-100,0,0,100,30.18,30.06,0,0,0,0.00
2013-12-29,74,52,42,-100,-100,-100,0,0,100,30.24,30.13,0,0,0,0.00
2013-12-30,62,53,51,-100,-100,-100,0,0,100,30.30,30.21,0,0,0,0.00
2013-12-31,73,53,47,-100,-100,-100,0,0,100,30.29,30.14,0,0,0,0.00
2014-1-1,74,52,47,-100,-100,-100,0,0,100,30.26,30.13,0,0,0,0.00
2014-1-2,81,58,51,-100,-100,-100,0,0,100,30.22,30.07,0,0,0,0.00